Tracking 17154 objects as of 3-August-2015
HD Live streaming from Space Station

MOLNIYA 3-51

Track MOLNIYA 3-51 now!
MOLNIYA 3-51 is classified as:


NORAD ID: 26867
Int'l Code: 2001-030A
Perigee: 285.3 km
Apogee: 32,570.2 km
Inclination: 62.5 °
Period: 571.0 minutes
Semi major axis: 22798 km
RCS: 12.5893 m2 (large)
Launch date: July 20, 2001
Source: Commonwealth of Independent States (former USSR) (CIS)

Can carry satellite broadcast television as well as military and manned voice communcations; highly elliptical orbit developed for northern latitudes beyond reach of geostationary satellites.
Your satellite tracking list
Your tracking list is empty





NASA's NSSDC Master Catalog

Two Line Element Set (TLE):
1 26867U 01030A   15213.74773486  .00001448  00000-0  46398-3 0  9991
2 26867 062.4611 211.4941 7080401 262.1116 048.3719 02.52195194105378

Source of the keplerian elements: AFSPC

N2YO: 270